Tracking 20066 objects as of 7-Dec-2019
HD Live streaming from Space Station
objects crossing your sky now

ATS 5 AKM

Track ATS 5 AKM now!


NORAD ID: 21052
Int'l Code: 1969-069C
Perigee: 35,866.0 km
Apogee: 36,914.9 km
Inclination: 6.7 °
Period: 1,466.7 minutes
Semi major axis: 42761 km
RCS: 0.003 m2 (small)
Launch date: August 12, 1969
Source: United States (US)
Launch site: AIR FORCE EASTERN TEST RANGE (AFETR)

Note: This is a ROCKET BODY
aabbcc
Your satellite tracking list
Your tracking list is empty




NASA's NSSDC Master Catalog

Two Line Element Set (TLE):
1 21052U 69069C   19340.49770950 +.00000014 +00000-0 +00000-0 0  9993
2 21052 006.6594 297.4772 0122640 239.2223 316.9727 00.98180309022960
Source of the keplerian elements: AFSPC